| time (UTC) | temp F | wind direction | speed MPH | gust MPH | rain 1hr in | rain 24hr in | rain mn in | humidity % | barometer mb |
| 20260507103621 | 38 | 216 | 1.0 | 2.0 | 0.00 | 0.00 | 0.00 | 89 | 1015.7 |
| 20260507103118 | 38 | 215 | 1.0 | 2.0 | 0.00 | 0.00 | 0.00 | 88 | 1015.8 |
| 20260507102614 | 38 | 211 | 1.0 | 2.0 | 0.00 | 0.00 | 0.00 | 87 | 1015.6 |
| 20260507102110 | 39 | 215 | 2.0 | 2.0 | 0.00 | 0.00 | 0.00 | 87 | 1015.5 |
| 20260507101607 | 38 | 208 | 2.0 | 2.0 | 0.00 | 0.00 | 0.00 | 87 | 1015.7 |
| 20260507101102 | 39 | 210 | 2.0 | 2.0 | 0.00 | 0.00 | 0.00 | 86 | 1015.5 |
| 20260507100600 | 39 | 211 | 2.0 | 2.0 | 0.00 | 0.00 | 0.00 | 86 | 1015.6 |
| 20260507100058 | 39 | 213 | 2.0 | 2.0 | 0.00 | 0.00 | 0.00 | 86 | 1015.4 |
| 20260507095556 | 39 | 209 | 2.0 | 2.0 | 0.00 | 0.00 | 0.00 | 86 | 1015.4 |
| 20260507095052 | 39 | 210 | 2.0 | 2.0 | 0.00 | 0.00 | 0.00 | 86 | 1015.2 |
| 20260507094548 | 39 | 208 | 1.0 | 1.0 | 0.00 | 0.00 | 0.00 | 86 | 1015.4 |
| 20260507094045 | 39 | 212 | 2.0 | 2.0 | 0.00 | 0.00 | 0.00 | 85 | 1015.5 |
| 20260507093543 | 40 | 210 | 1.0 | 2.0 | 0.00 | 0.00 | 0.00 | 85 | 1015.4 |
| 20260507093042 | 40 | 210 | 1.0 | 1.0 | 0.00 | 0.00 | 0.00 | 85 | 1015.1 |
| 20260507092537 | 39 | 215 | 1.0 | 1.0 | 0.00 | 0.00 | 0.00 | 86 | 1015.4 |
| 20260507092035 | 40 | 213 | 1.0 | 2.0 | 0.00 | 0.00 | 0.00 | 86 | 1015.4 |
| 20260507091531 | 40 | 207 | 1.0 | 2.0 | 0.00 | 0.00 | 0.00 | 86 | 1015.1 |
| 20260507091028 | 39 | 208 | 2.0 | 2.0 | 0.00 | 0.00 | 0.00 | 88 | 1015.2 |
| 20260507090523 | 39 | 206 | 2.0 | 2.0 | 0.00 | 0.00 | 0.00 | 88 | 1015.4 |
| 20260507090020 | 40 | 216 | 1.0 | 1.0 | 0.00 | 0.00 | 0.00 | 88 | 1015.1 |
| 20260507085518 | 40 | 216 | 0.0 | 0.0 | 0.00 | 0.00 | 0.00 | 88 | 1015.5 |
| 20260507085014 | 40 | 216 | 0.0 | 0.0 | 0.00 | 0.00 | 0.00 | 88 | 1015.4 |
| 20260507084510 | 40 | 216 | 0.0 | 0.0 | 0.00 | 0.00 | 0.00 | 88 | 1015.2 |
| 20260507084008 | 40 | 216 | 0.0 | 1.0 | 0.00 | 0.00 | 0.00 | 87 | 1015.2 |
| 20260507083504 | 41 | 225 | 0.0 | 1.0 | 0.00 | 0.00 | 0.00 | 86 | 1015.4 |
| 20260507083001 | 41 | 220 | 1.0 | 1.0 | 0.00 | 0.00 | 0.00 | 85 | 1015.2 |
| 20260507082457 | 41 | 240 | 1.0 | 2.0 | 0.00 | 0.00 | 0.00 | 86 | 1015.6 |
| 20260507081953 | 41 | 266 | 1.0 | 1.0 | 0.00 | 0.00 | 0.00 | 86 | 1015.2 |
| 20260507081449 | 42 | 220 | 1.0 | 2.0 | 0.00 | 0.00 | 0.00 | 85 | 1015.5 |
| 20260507080947 | 42 | 240 | 2.0 | 2.0 | 0.00 | 0.00 | 0.00 | 88 | 1015.5 |
| 20260507080442 | 42 | 257 | 0.0 | 1.0 | 0.00 | 0.00 | 0.00 | 89 | 1015.4 |
| 20260507075937 | 42 | 220 | 0.0 | 0.0 | 0.00 | 0.00 | 0.00 | 89 | 1015.4 |
| 20260507075435 | 42 | 225 | 1.0 | 1.0 | 0.00 | 0.00 | 0.00 | 88 | 1015.5 |
| 20260507074931 | 43 | 213 | 2.0 | 2.0 | 0.00 | 0.00 | 0.00 | 88 | 1015.6 |
| 20260507074428 | 43 | 230 | 1.0 | 2.0 | 0.00 | 0.00 | 0.00 | 89 | 1015.5 |
| 20260507073926 | 43 | 221 | 2.0 | 2.0 | 0.00 | 0.00 | 0.00 | 89 | 1015.5 |
| 20260507073422 | 43 | 211 | 3.0 | 5.0 | 0.00 | 0.00 | 0.00 | 89 | 1015.6 |
| 20260507072919 | 43 | 217 | 2.0 | 2.0 | 0.00 | 0.00 | 0.00 | 89 | 1015.8 |
| 20260507072416 | 43 | 214 | 1.0 | 2.0 | 0.00 | 0.00 | 0.00 | 88 | 1015.6 |
| 20260507071914 | 43 | 208 | 1.0 | 1.0 | 0.00 | 0.00 | 0.00 | 87 | 1015.6 |
| 20260507071411 | 43 | 213 | 2.0 | 2.0 | 0.00 | 0.00 | 0.00 | 88 | 1015.6 |
| 20260507070906 | 43 | 218 | 1.0 | 1.0 | 0.00 | 0.00 | 0.00 | 88 | 1015.5 |
| 20260507070405 | 43 | 228 | 0.0 | 0.0 | 0.00 | 0.00 | 0.00 | 89 | 1015.5 |
| 20260507065901 | 42 | 218 | 0.0 | 0.0 | 0.00 | 0.00 | 0.00 | 89 | 1015.6 |
| 20260507065358 | 42 | 212 | 1.0 | 1.0 | 0.00 | 0.00 | 0.00 | 89 | 1015.7 |
| 20260507064855 | 43 | 212 | 1.0 | 1.0 | 0.00 | 0.00 | 0.00 | 88 | 1015.6 |
| 20260507064353 | 43 | 210 | 1.0 | 2.0 | 0.00 | 0.00 | 0.00 | 87 | 1015.6 |
| 20260507063851 | 43 | 210 | 1.0 | 1.0 | 0.00 | 0.00 | 0.00 | 85 | 1015.8 |
| 20260507063348 | 43 | 213 | 1.0 | 1.0 | 0.00 | 0.00 | 0.00 | 85 | 1015.8 |
| 20260507062844 | 43 | 215 | 1.0 | 1.0 | 0.00 | 0.00 | 0.00 | 86 | 1015.6 |
| 20260507062341 | 43 | 218 | 1.0 | 1.0 | 0.00 | 0.00 | 0.00 | 86 | 1015.9 |
| 20260507061839 | 43 | 225 | 1.0 | 1.0 | 0.00 | 0.00 | 0.00 | 85 | 1015.9 |
| 20260507061337 | 43 | 220 | 0.0 | 1.0 | 0.00 | 0.00 | 0.00 | 85 | 1015.8 |
| 20260507060835 | 44 | 214 | 1.0 | 1.0 | 0.00 | 0.00 | 0.00 | 83 | 1015.9 |
| 20260507060332 | 44 | 208 | 1.0 | 1.0 | 0.00 | 0.00 | 0.00 | 83 | 1015.9 |
| 20260507055828 | 44 | 208 | 1.0 | 1.0 | 0.00 | 0.00 | 0.00 | 84 | 1015.9 |
| 20260507055323 | 44 | 212 | 1.0 | 1.0 | 0.00 | 0.00 | 0.00 | 84 | 1016.0 |
| 20260507054820 | 45 | 210 | 1.0 | 1.0 | 0.00 | 0.00 | 0.00 | 82 | 1016.0 |
| 20260507054316 | 45 | 206 | 1.0 | 1.0 | 0.00 | 0.00 | 0.00 | 81 | 1015.9 |
| 20260507053814 | 46 | 208 | 1.0 | 1.0 | 0.00 | 0.00 | 0.00 | 81 | 1015.9 |
| 20260507053312 | 45 | 208 | 1.0 | 1.0 | 0.00 | 0.00 | 0.00 | 82 | 1016.1 |
| 20260507052811 | 45 | 209 | 1.0 | 1.0 | 0.00 | 0.00 | 0.00 | 84 | 1016.1 |
| 20260507052307 | 45 | 207 | 0.0 | 1.0 | 0.00 | 0.00 | 0.00 | 85 | 1016.0 |
| 20260507051805 | 46 | 212 | 0.0 | 1.0 | 0.00 | 0.00 | 0.00 | 84 | 1016.1 |
| 20260507051302 | 46 | 212 | 1.0 | 1.0 | 0.00 | 0.00 | 0.00 | 83 | 1016.3 |
| 20260507050758 | 46 | 212 | 1.0 | 1.0 | 0.00 | 0.00 | 0.00 | 83 | 1016.3 |
| 20260507050254 | 46 | 210 | 1.0 | 1.0 | 0.00 | 0.00 | 0.00 | 82 | 1016.1 |
| 20260507045751 | 46 | 209 | 1.0 | 1.0 | 0.00 | 0.00 | 0.00 | 84 | 1016.2 |
| 20260507045247 | 46 | 209 | 0.0 | 0.0 | 0.00 | 0.00 | 0.00 | 84 | 1016.2 |
| 20260507044745 | 46 | 209 | 0.0 | 1.0 | 0.00 | 0.00 | 0.00 | 84 | 1016.2 |
| 20260507044241 | 46 | 210 | 0.0 | 1.0 | 0.00 | 0.00 | 0.00 | 84 | 1016.3 |
| 20260507043738 | 47 | 212 | 0.0 | 1.0 | 0.00 | 0.00 | 0.00 | 83 | 1016.3 |
| 20260507043235 | 47 | 209 | 0.0 | 0.0 | 0.00 | 0.00 | 0.00 | 82 | 1016.3 |
| 20260507042731 | 47 | 206 | 0.0 | 0.0 | 0.00 | 0.00 | 0.00 | 81 | 1016.3 |
| 20260507042226 | 47 | 206 | 0.0 | 0.0 | 0.00 | 0.00 | 0.00 | 81 | 1016.2 |
| 20260507041724 | 47 | 206 | 0.0 | 0.0 | 0.00 | 0.00 | 0.00 | 82 | 1016.3 |
| 20260507041220 | 47 | 206 | 0.0 | 0.0 | 0.00 | 0.00 | 0.00 | 82 | 1016.4 |
| 20260507040717 | 46 | 206 | 0.0 | 0.0 | 0.00 | 0.00 | 0.00 | 83 | 1016.4 |
| 20260507040213 | 46 | 207 | 0.0 | 0.0 | 0.00 | 0.00 | 0.00 | 82 | 1016.3 |
| 20260507035709 | 47 | 207 | 0.0 | 0.0 | 0.00 | 0.15 | 0.15 | 82 | 1016.4 |
| 20260507035205 | 47 | 207 | 0.0 | 0.0 | 0.00 | 0.15 | 0.15 | 81 | 1016.3 |
| 20260507034702 | 46 | 207 | 0.0 | 0.0 | 0.00 | 0.15 | 0.15 | 80 | 1016.3 |
| 20260507034200 | 47 | 207 | 0.0 | 0.0 | 0.00 | 0.15 | 0.15 | 80 | 1016.4 |
| 20260507033658 | 47 | 208 | 0.0 | 0.0 | 0.00 | 0.15 | 0.15 | 80 | 1016.3 |
| 20260507033155 | 47 | 209 | 0.0 | 0.0 | 0.00 | 0.15 | 0.15 | 79 | 1016.4 |
| 20260507032652 | 47 | 206 | 0.0 | 0.0 | 0.00 | 0.15 | 0.15 | 78 | 1016.4 |
| 20260507032148 | 47 | 207 | 0.0 | 0.0 | 0.00 | 0.15 | 0.15 | 78 | 1016.4 |
| 20260507031645 | 47 | 209 | 0.0 | 0.0 | 0.00 | 0.15 | 0.15 | 79 | 1016.4 |
| 20260507031142 | 47 | 206 | 0.0 | 0.0 | 0.00 | 0.15 | 0.15 | 79 | 1016.4 |
| 20260507030638 | 48 | 210 | 0.0 | 0.0 | 0.00 | 0.15 | 0.15 | 77 | 1016.8 |
| 20260507030137 | 47 | 209 | 0.0 | 0.0 | 0.00 | 0.15 | 0.15 | 75 | 1016.6 |
| 20260507025633 | 48 | 226 | 0.0 | 0.0 | 0.00 | 0.15 | 0.15 | 77 | 1016.7 |
| 20260507025130 | 48 | 226 | 0.0 | 0.0 | 0.00 | 0.15 | 0.15 | 77 | 1016.8 |
| 20260507024628 | 48 | 228 | 0.0 | 0.0 | 0.00 | 0.15 | 0.15 | 76 | 1016.8 |
| 20260507024125 | 48 | 235 | 0.0 | 0.0 | 0.00 | 0.15 | 0.15 | 76 | 1016.6 |
| 20260507023620 | 48 | 232 | 0.0 | 0.0 | 0.00 | 0.15 | 0.15 | 75 | 1016.8 |
| 20260507023118 | 48 | 226 | 0.0 | 0.0 | 0.00 | 0.15 | 0.15 | 73 | 1016.8 |
| 20260507022615 | 49 | 234 | 1.0 | 1.0 | 0.00 | 0.15 | 0.15 | 71 | 1016.8 |
| 20260507022110 | 49 | 230 | 1.0 | 1.0 | 0.00 | 0.15 | 0.15 | 69 | 1016.7 |
| 20260507021607 | 49 | 235 | 1.0 | 1.0 | 0.00 | 0.15 | 0.15 | 69 | 1016.5 |
| 20260507021103 | 48 | 231 | 0.0 | 1.0 | 0.00 | 0.15 | 0.15 | 73 | 1016.6 |
| 20260507020601 | 48 | 233 | 1.0 | 2.0 | 0.00 | 0.15 | 0.15 | 72 | 1016.7 |
| 20260507020057 | 48 | 231 | 0.0 | 0.0 | 0.00 | 0.15 | 0.15 | 74 | 1016.5 |
| 20260507015556 | 48 | 240 | 1.0 | 2.0 | 0.00 | 0.15 | 0.15 | 73 | 1016.3 |
| 20260507015053 | 49 | 229 | 1.0 | 2.0 | 0.00 | 0.15 | 0.15 | 70 | 1016.5 |
| 20260507014549 | 49 | 246 | 2.0 | 3.0 | 0.00 | 0.15 | 0.15 | 69 | 1016.3 |
| 20260507014044 | 49 | 249 | 2.0 | 3.0 | 0.00 | 0.15 | 0.15 | 69 | 1016.1 |
| 20260507013542 | 49 | 263 | 2.0 | 2.0 | 0.00 | 0.15 | 0.15 | 70 | 1016.2 |
| 20260507013039 | 50 | 268 | 2.0 | 5.0 | 0.00 | 0.15 | 0.15 | 68 | 1016.2 |
| 20260507012536 | 50 | 237 | 3.0 | 5.0 | 0.00 | 0.15 | 0.15 | 64 | 1015.9 |
| 20260507012032 | 50 | 216 | 4.0 | 6.0 | 0.00 | 0.15 | 0.15 | 65 | 1015.8 |
| 20260507011530 | 50 | 226 | 5.0 | 6.0 | 0.00 | 0.15 | 0.15 | 64 | 1015.9 |
| 20260507011026 | 49 | 218 | 5.0 | 6.0 | 0.00 | 0.15 | 0.15 | 69 | 1015.9 |
| 20260507010520 | 49 | 220 | 4.0 | 5.0 | 0.00 | 0.15 | 0.15 | 70 | 1015.9 |
| 20260507010017 | 49 | 220 | 3.0 | 3.0 | 0.00 | 0.15 | 0.15 | 71 | 1015.8 |
| 20260507005514 | 49 | 214 | 2.0 | 2.0 | 0.00 | 0.15 | 0.15 | 71 | 1015.9 |
| 20260507005005 | 50 | 213 | 3.0 | 3.0 | 0.00 | 0.15 | 0.15 | 70 | 1015.8 |
| 20260507004502 | 50 | 215 | 3.0 | 3.0 | 0.00 | 0.15 | 0.15 | 67 | 1015.5 |
| 20260507004000 | 50 | 216 | 3.0 | 5.0 | 0.00 | 0.15 | 0.15 | 66 | 1015.7 |
| 20260507003454 | 50 | 239 | 3.0 | 5.0 | 0.00 | 0.15 | 0.15 | 64 | 1015.9 |
| 20260507002949 | 50 | 225 | 3.0 | 3.0 | 0.00 | 0.15 | 0.15 | 64 | 1015.8 |
| 20260507002446 | 51 | 218 | 4.0 | 5.0 | 0.00 | 0.15 | 0.15 | 60 | 1015.5 |
| 20260507001943 | 51 | 226 | 3.0 | 3.0 | 0.00 | 0.15 | 0.15 | 59 | 1015.6 |
| 20260507001440 | 51 | 219 | 4.0 | 5.0 | 0.00 | 0.15 | 0.15 | 57 | 1015.8 |
| 20260507000937 | 51 | 235 | 3.0 | 5.0 | 0.00 | 0.15 | 0.15 | 58 | 1015.6 |
| 20260507000435 | 51 | 228 | 3.0 | 5.0 | 0.00 | 0.15 | 0.15 | 58 | 1015.9 |
| 20260506235929 | 52 | 242 | 4.0 | 5.0 | 0.00 | 0.15 | 0.15 | 57 | 1015.6 |
| 20260506235426 | 52 | 230 | 4.0 | 5.0 | 0.00 | 0.15 | 0.15 | 57 | 1015.5 |
| 20260506234922 | 52 | 238 | 4.0 | 5.0 | 0.00 | 0.15 | 0.15 | 57 | 1015.7 |
| 20260506234420 | 52 | 234 | 4.0 | 5.0 | 0.00 | 0.15 | 0.15 | 57 | 1015.9 |
| 20260506233917 | 52 | 227 | 4.0 | 6.0 | 0.00 | 0.15 | 0.15 | 56 | 1015.9 |
| 20260506233413 | 52 | 214 | 5.0 | 6.0 | 0.00 | 0.15 | 0.15 | 55 | 1015.7 |
| 20260506232910 | 53 | 225 | 4.0 | 6.0 | 0.00 | 0.15 | 0.15 | 55 | 1015.8 |
| 20260506232406 | 53 | 244 | 6.0 | 8.0 | 0.00 | 0.15 | 0.15 | 52 | 1015.7 |
| 20260506231902 | 53 | 239 | 4.0 | 5.0 | 0.00 | 0.15 | 0.15 | 55 | 1015.7 |
| 20260506231400 | 53 | 252 | 6.0 | 7.0 | 0.00 | 0.15 | 0.15 | 52 | 1015.6 |
| 20260506230857 | 53 | 236 | 7.0 | 8.0 | 0.00 | 0.15 | 0.15 | 50 | 1015.7 |
| 20260506230354 | 53 | 245 | 6.0 | 9.0 | 0.00 | 0.15 | 0.15 | 51 | 1015.4 |
| 20260506225850 | 53 | 254 | 4.0 | 6.0 | 0.00 | 0.15 | 0.15 | 53 | 1015.6 |
| 20260506225347 | 53 | 261 | 4.0 | 6.0 | 0.00 | 0.15 | 0.15 | 54 | 1015.6 |
| 20260506224844 | 53 | 232 | 3.0 | 3.0 | 0.00 | 0.15 | 0.15 | 46 | 1015.5 |
| 20260506224342 | 53 | 230 | 3.0 | 5.0 | 0.00 | 0.15 | 0.15 | 47 | 1015.6 |
| 20260506223837 | 53 | 239 | 3.0 | 5.0 | 0.00 | 0.15 | 0.15 | 52 | 1015.8 |
| 20260506223327 | 53 | 241 | 4.0 | 7.0 | 0.00 | 0.15 | 0.15 | 52 | 1015.6 |
| 20260506222825 | 53 | 252 | 4.0 | 5.0 | 0.00 | 0.15 | 0.15 | 55 | 1015.6 |
| 20260506222320 | 53 | 249 | 4.0 | 6.0 | 0.00 | 0.15 | 0.15 | 49 | 1015.6 |
| 20260506221818 | 53 | 234 | 4.0 | 5.0 | 0.00 | 0.15 | 0.15 | 55 | 1015.6 |
| 20260506221316 | 53 | 247 | 6.0 | 8.0 | 0.00 | 0.15 | 0.15 | 49 | 1015.8 |
| 20260506220813 | 53 | 251 | 7.0 | 8.0 | 0.00 | 0.15 | 0.15 | 51 | 1015.8 |
| 20260506220308 | 54 | 238 | 3.0 | 5.0 | 0.00 | 0.15 | 0.15 | 52 | 1015.6 |
| 20260506215805 | 54 | 244 | 4.0 | 5.0 | 0.00 | 0.15 | 0.15 | 46 | 1015.7 |
| 20260506215301 | 54 | 246 | 3.0 | 7.0 | 0.00 | 0.15 | 0.15 | 51 | 1015.8 |
| 20260506214756 | 54 | 245 | 5.0 | 6.0 | 0.00 | 0.15 | 0.15 | 48 | 1015.6 |
| 20260506214254 | 54 | 245 | 4.0 | 6.0 | 0.00 | 0.15 | 0.15 | 47 | 1015.7 |
| 20260506213752 | 53 | 242 | 4.0 | 6.0 | 0.00 | 0.15 | 0.15 | 49 | 1015.7 |
| 20260506213249 | 54 | 242 | 5.0 | 8.0 | 0.00 | 0.15 | 0.15 | 49 | 1015.5 |
| 20260506212746 | 54 | 262 | 3.0 | 5.0 | 0.00 | 0.15 | 0.15 | 47 | 1015.7 |
| 20260506212242 | 54 | 268 | 5.0 | 7.0 | 0.00 | 0.15 | 0.15 | 51 | 1015.6 |
| 20260506211737 | 54 | 249 | 4.0 | 6.0 | 0.00 | 0.15 | 0.15 | 49 | 1015.7 |
| 20260506211234 | 54 | 274 | 5.0 | 7.0 | 0.00 | 0.15 | 0.15 | 45 | 1015.6 |
| 20260506210731 | 54 | 313 | 2.0 | 5.0 | 0.00 | 0.15 | 0.15 | 48 | 1015.5 |
| 20260506210228 | 54 | 342 | 4.0 | 6.0 | 0.00 | 0.15 | 0.15 | 46 | 1015.6 |
| 20260506205725 | 54 | 299 | 4.0 | 5.0 | 0.00 | 0.15 | 0.15 | 45 | 1015.5 |
| 20260506205220 | 54 | 251 | 3.0 | 5.0 | 0.00 | 0.15 | 0.15 | 45 | 1015.4 |
| 20260506204717 | 54 | 270 | 3.0 | 5.0 | 0.00 | 0.15 | 0.15 | 48 | 1015.5 |
| 20260506204214 | 54 | 270 | 5.0 | 6.0 | 0.00 | 0.15 | 0.15 | 46 | 1015.6 |
| 20260506203712 | 54 | 254 | 6.0 | 9.0 | 0.00 | 0.15 | 0.15 | 43 | 1015.5 |
| 20260506203209 | 54 | 285 | 3.0 | 5.0 | 0.00 | 0.15 | 0.15 | 44 | 1015.4 |
| 20260506202707 | 54 | 318 | 3.0 | 10.0 | 0.00 | 0.15 | 0.15 | 45 | 1015.5 |
| 20260506202203 | 54 | 257 | 4.0 | 7.0 | 0.00 | 0.15 | 0.15 | 49 | 1015.5 |
| 20260506201700 | 55 | 267 | 7.0 | 8.0 | 0.00 | 0.15 | 0.15 | 43 | 1015.4 |
| 20260506201156 | 56 | 325 | 4.0 | 6.0 | 0.00 | 0.15 | 0.15 | 44 | 1015.4 |
| 20260506200653 | 55 | 255 | 2.0 | 3.0 | 0.00 | 0.15 | 0.15 | 44 | 1015.5 |
| 20260506200150 | 54 | 259 | 2.0 | 8.0 | 0.00 | 0.15 | 0.15 | 49 | 1015.5 |
| 20260506195647 | 54 | 306 | 5.0 | 8.0 | 0.00 | 0.15 | 0.15 | 45 | 1015.4 |
| 20260506195143 | 55 | 267 | 5.0 | 8.0 | 0.00 | 0.15 | 0.15 | 46 | 1015.5 |
| 20260506194641 | 55 | 293 | 2.0 | 5.0 | 0.00 | 0.15 | 0.15 | 45 | 1015.4 |
| 20260506194137 | 54 | 290 | 4.0 | 7.0 | 0.00 | 0.15 | 0.15 | 45 | 1015.2 |
| 20260506193635 | 54 | 269 | 2.0 | 6.0 | 0.00 | 0.15 | 0.15 | 46 | 1015.5 |
| 20260506193132 | 55 | 248 | 5.0 | 8.0 | 0.00 | 0.15 | 0.15 | 46 | 1015.6 |
| 20260506192628 | 55 | 315 | 4.0 | 8.0 | 0.00 | 0.15 | 0.15 | 46 | 1015.6 |
| 20260506192124 | 55 | 246 | 4.0 | 8.0 | 0.00 | 0.15 | 0.15 | 45 | 1015.6 |
| 20260506191621 | 54 | 250 | 5.0 | 7.0 | 0.00 | 0.15 | 0.15 | 49 | 1015.7 |
| 20260506191117 | 55 | 256 | 10.0 | 11.0 | 0.00 | 0.15 | 0.15 | 46 | 1015.6 |
| 20260506190615 | 55 | 259 | 5.0 | 9.0 | 0.00 | 0.15 | 0.15 | 45 | 1015.5 |
| 20260506190111 | 55 | 252 | 8.0 | 10.0 | 0.00 | 0.15 | 0.15 | 47 | 1015.5 |
| 20260506185609 | 55 | 20 | 9.0 | 11.0 | 0.00 | 0.15 | 0.15 | 46 | 1015.4 |
| 20260506185105 | 55 | 258 | 8.0 | 14.0 | 0.00 | 0.15 | 0.15 | 46 | 1015.6 |
| 20260506184602 | 55 | 230 | 2.0 | 7.0 | 0.00 | 0.15 | 0.15 | 44 | 1015.4 |
| 20260506184100 | 55 | 307 | 6.0 | 9.0 | 0.00 | 0.15 | 0.15 | 44 | 1015.2 |
| 20260506183555 | 55 | 283 | 4.0 | 9.0 | 0.00 | 0.15 | 0.15 | 49 | 1015.4 |
| 20260506183052 | 56 | 252 | 3.0 | 5.0 | 0.00 | 0.15 | 0.15 | 48 | 1015.2 |
| 20260506182550 | 55 | 225 | 3.0 | 7.0 | 0.00 | 0.15 | 0.15 | 47 | 1015.2 |
| 20260506182047 | 56 | 261 | 5.0 | 10.0 | 0.00 | 0.15 | 0.15 | 44 | 1015.0 |
| 20260506181545 | 56 | 317 | 6.0 | 8.0 | 0.00 | 0.15 | 0.15 | 45 | 1015.2 |
| 20260506181041 | 56 | 236 | 4.0 | 6.0 | 0.00 | 0.15 | 0.15 | 44 | 1014.9 |
| 20260506180538 | 56 | 246 | 5.0 | 7.0 | 0.00 | 0.15 | 0.15 | 45 | 1015.1 |
| 20260506180034 | 56 | 337 | 3.0 | 13.0 | 0.00 | 0.15 | 0.15 | 49 | 1015.1 |
| 20260506175531 | 56 | 235 | 5.0 | 9.0 | 0.00 | 0.15 | 0.15 | 48 | 1014.9 |
| 20260506175027 | 55 | 258 | 7.0 | 9.0 | 0.00 | 0.15 | 0.15 | 54 | 1015.1 |
| 20260506174526 | 56 | 275 | 11.0 | 14.0 | 0.00 | 0.15 | 0.15 | 47 | 1015.0 |
| 20260506174022 | 55 | 340 | 3.0 | 7.0 | 0.00 | 0.15 | 0.15 | 49 | 1015.1 |
| 20260506173520 | 56 | 229 | 2.0 | 6.0 | 0.00 | 0.15 | 0.15 | 56 | 1015.2 |
| 20260506173016 | 55 | 235 | 7.0 | 9.0 | 0.00 | 0.15 | 0.15 | 48 | 1015.2 |
| 20260506172514 | 55 | 255 | 8.0 | 9.0 | 0.00 | 0.15 | 0.15 | 48 | 1015.2 |
| 20260506172010 | 55 | 246 | 9.0 | 11.0 | 0.00 | 0.15 | 0.15 | 50 | 1015.2 |
| 20260506171507 | 55 | 266 | 3.0 | 3.0 | 0.00 | 0.15 | 0.15 | 50 | 1015.5 |
| 20260506171005 | 54 | 331 | 5.0 | 11.0 | 0.00 | 0.15 | 0.15 | 50 | 1015.5 |
| 20260506170502 | 54 | 291 | 10.0 | 14.0 | 0.00 | 0.15 | 0.15 | 50 | 1015.6 |
| 20260506170000 | 57 | 245 | 8.0 | 11.0 | 0.00 | 0.15 | 0.15 | 50 | 1015.6 |
| 20260506165458 | 56 | 256 | 6.0 | 10.0 | 0.00 | 0.15 | 0.15 | 54 | 1015.6 |
| 20260506164954 | 56 | 247 | 4.0 | 7.0 | 0.00 | 0.15 | 0.15 | 50 | 1015.6 |
| 20260506164450 | 55 | 248 | 4.0 | 8.0 | 0.00 | 0.15 | 0.15 | 51 | 1015.8 |
| 20260506163948 | 55 | 298 | 4.0 | 9.0 | 0.00 | 0.15 | 0.15 | 50 | 1015.7 |
| 20260506163443 | 55 | 38 | 3.0 | 6.0 | 0.00 | 0.15 | 0.15 | 52 | 1015.6 |
| 20260506162938 | 55 | 247 | 4.0 | 11.0 | 0.00 | 0.15 | 0.15 | 53 | 1015.7 |
| 20260506162436 | 55 | 291 | 4.0 | 10.0 | 0.00 | 0.15 | 0.15 | 47 | 1015.6 |
| 20260506161933 | 55 | 260 | 3.0 | 10.0 | 0.00 | 0.15 | 0.15 | 55 | 1015.5 |
| 20260506161432 | 55 | 273 | 2.0 | 9.0 | 0.00 | 0.15 | 0.15 | 55 | 1015.5 |
| 20260506160929 | 55 | 57 | 5.0 | 9.0 | 0.00 | 0.15 | 0.15 | 49 | 1015.7 |
| 20260506160426 | 55 | 348 | 2.0 | 8.0 | 0.00 | 0.15 | 0.15 | 50 | 1015.5 |
| 20260506155923 | 56 | 230 | 3.0 | 6.0 | 0.00 | 0.15 | 0.15 | 50 | 1015.6 |
| 20260506155420 | 55 | 349 | 1.0 | 6.0 | 0.00 | 0.15 | 0.15 | 49 | 1015.4 |
| 20260506153542 | 55 | 301 | 3.0 | 7.0 | 0.00 | 0.15 | 0.15 | 48 | 1015.4 |
| 20260506153040 | 55 | 292 | 5.0 | 9.0 | 0.00 | 0.15 | 0.15 | 49 | 1015.0 |
| 20260506152537 | 55 | 319 | 3.0 | 7.0 | 0.00 | 0.15 | 0.15 | 46 | 1015.1 |
| 20260506152035 | 55 | 325 | 2.0 | 7.0 | 0.00 | 0.15 | 0.15 | 48 | 1015.1 |
| 20260506151532 | 55 | 69 | 1.0 | 6.0 | 0.00 | 0.15 | 0.15 | 46 | 1015.4 |
| 20260506151029 | 54 | 336 | 3.0 | 5.0 | 0.00 | 0.15 | 0.15 | 51 | 1015.2 |
| 20260506150526 | 53 | 196 | 3.0 | 8.0 | 0.00 | 0.15 | 0.15 | 48 | 1015.0 |
| 20260506150023 | 54 | 267 | 5.0 | 7.0 | 0.00 | 0.15 | 0.15 | 46 | 1014.9 |
| 20260506145519 | 54 | 245 | 4.0 | 6.0 | 0.00 | 0.15 | 0.15 | 49 | 1014.7 |
| 20260506145017 | 55 | 302 | 3.0 | 8.0 | 0.00 | 0.15 | 0.15 | 50 | 1014.8 |
| 20260506144513 | 54 | 350 | 2.0 | 8.0 | 0.00 | 0.15 | 0.15 | 54 | 1014.8 |
| 20260506144011 | 54 | 310 | 3.0 | 6.0 | 0.00 | 0.15 | 0.15 | 51 | 1014.6 |
| 20260506143508 | 53 | 259 | 1.0 | 3.0 | 0.00 | 0.15 | 0.15 | 54 | 1014.7 |
| 20260506143007 | 53 | 204 | 1.0 | 6.0 | 0.00 | 0.15 | 0.15 | 56 | 1014.9 |
| 20260506142504 | 53 | 331 | 5.0 | 8.0 | 0.00 | 0.15 | 0.15 | 56 | 1014.7 |
| 20260506142002 | 53 | 335 | 6.0 | 8.0 | 0.00 | 0.15 | 0.15 | 58 | 1014.6 |
| 20260506141459 | 53 | 74 | 2.0 | 7.0 | 0.00 | 0.15 | 0.15 | 58 | 1014.6 |
| 20260506140958 | 53 | 312 | 3.0 | 6.0 | 0.00 | 0.15 | 0.15 | 58 | 1014.5 |
| 20260506140454 | 53 | 324 | 3.0 | 7.0 | 0.00 | 0.15 | 0.15 | 58 | 1014.5 |
| 20260506135951 | 53 | 348 | 5.0 | 7.0 | 0.00 | 0.15 | 0.15 | 58 | 1014.6 |
| 20260506135449 | 53 | 19 | 3.0 | 6.0 | 0.00 | 0.15 | 0.15 | 61 | 1014.4 |
| 20260506134944 | 53 | 306 | 1.0 | 3.0 | 0.00 | 0.15 | 0.15 | 61 | 1014.4 |
| 20260506134440 | 52 | 205 | 1.0 | 2.0 | 0.00 | 0.15 | 0.15 | 62 | 1014.5 |
| 20260506133937 | 52 | 336 | 2.0 | 5.0 | 0.00 | 0.15 | 0.15 | 60 | 1014.4 |
| 20260506133435 | 52 | 243 | 1.0 | 3.0 | 0.00 | 0.15 | 0.15 | 63 | 1014.4 |
| 20260506132931 | 52 | 316 | 4.0 | 5.0 | 0.00 | 0.15 | 0.15 | 62 | 1014.3 |
| 20260506132428 | 52 | 257 | 2.0 | 3.0 | 0.00 | 0.15 | 0.15 | 67 | 1014.2 |
| 20260506131926 | 52 | 236 | 2.0 | 5.0 | 0.00 | 0.15 | 0.15 | 66 | 1014.0 |
| 20260506131422 | 51 | 9 | 1.0 | 5.0 | 0.00 | 0.15 | 0.15 | 70 | 1014.0 |
| 20260506130919 | 50 | 276 | 1.0 | 5.0 | 0.00 | 0.15 | 0.15 | 70 | 1013.9 |
| 20260506130416 | 50 | 252 | 1.0 | 6.0 | 0.00 | 0.15 | 0.15 | 75 | 1013.9 |
| 20260506125914 | 50 | 200 | 0.0 | 3.0 | 0.00 | 0.15 | 0.15 | 74 | 1014.0 |
| 20260506125412 | 49 | 232 | 1.0 | 5.0 | 0.00 | 0.15 | 0.15 | 75 | 1013.8 |
| 20260506124910 | 49 | 8 | 3.0 | 5.0 | 0.00 | 0.15 | 0.15 | 75 | 1013.9 |
| 20260506124407 | 49 | 253 | 1.0 | 6.0 | 0.00 | 0.15 | 0.15 | 80 | 1013.8 |
| 20260506123905 | 47 | 286 | 2.0 | 6.0 | 0.00 | 0.15 | 0.15 | 82 | 1013.8 |
| 20260506123403 | 47 | 284 | 2.0 | 5.0 | 0.00 | 0.15 | 0.15 | 82 | 1013.7 |
| 20260506122900 | 48 | 250 | 1.0 | 1.0 | 0.00 | 0.15 | 0.15 | 87 | 1013.6 |
| 20260506122356 | 46 | 233 | 0.0 | 2.0 | 0.00 | 0.15 | 0.15 | 89 | 1013.6 |
| 20260506121855 | 46 | 258 | 1.0 | 2.0 | 0.00 | 0.15 | 0.15 | 90 | 1013.5 |
| 20260506121351 | 46 | 269 | 2.0 | 2.0 | 0.00 | 0.15 | 0.15 | 91 | 1013.4 |
| 20260506120848 | 46 | 246 | 1.0 | 3.0 | 0.00 | 0.15 | 0.15 | 91 | 1013.3 |
| 20260506120346 | 45 | 247 | 1.0 | 2.0 | 0.00 | 0.15 | 0.15 | 93 | 1013.1 |
| 20260506115843 | 45 | 241 | 2.0 | 3.0 | 0.00 | 0.15 | 0.15 | 93 | 1013.3 |
| 20260506115341 | 45 | 249 | 2.0 | 3.0 | 0.00 | 0.15 | 0.15 | 94 | 1013.2 |
| 20260506114839 | 45 | 250 | 1.0 | 2.0 | 0.00 | 0.15 | 0.15 | 95 | 1013.2 |
| 20260506114336 | 45 | 239 | 2.0 | 2.0 | 0.00 | 0.15 | 0.15 | 95 | 1013.3 |
| 20260506113835 | 45 | 246 | 3.0 | 3.0 | 0.00 | 0.15 | 0.15 | 95 | 1012.9 |
| 20260506113332 | 45 | 240 | 3.0 | 3.0 | 0.00 | 0.15 | 0.15 | 95 | 1012.9 |
| 20260506112829 | 45 | 240 | 2.0 | 5.0 | 0.00 | 0.15 | 0.15 | 95 | 1013.0 |
| 20260506112326 | 45 | 235 | 2.0 | 3.0 | 0.00 | 0.15 | 0.15 | 95 | 1013.0 |
| 20260506111823 | 44 | 234 | 3.0 | 3.0 | 0.00 | 0.15 | 0.15 | 96 | 1012.9 |
| 20260506111322 | 44 | 239 | 3.0 | 3.0 | 0.00 | 0.15 | 0.15 | 96 | 1012.8 |
| 20260506110819 | 44 | 230 | 2.0 | 3.0 | 0.00 | 0.15 | 0.15 | 96 | 1012.9 |
| 20260506110315 | 44 | 237 | 3.0 | 3.0 | 0.00 | 0.15 | 0.15 | 96 | 1012.8 |
| 20260506105812 | 44 | 247 | 2.0 | 3.0 | 0.00 | 0.15 | 0.15 | 95 | 1012.3 |
| 20260506105309 | 44 | 234 | 3.0 | 3.0 | 0.00 | 0.15 | 0.15 | 95 | 1012.6 |
| 20260506104806 | 44 | 248 | 2.0 | 2.0 | 0.00 | 0.15 | 0.15 | 96 | 1012.2 |
| 20260506104304 | 44 | 238 | 2.0 | 2.0 | 0.00 | 0.15 | 0.15 | 96 | 1012.1 |